Voltar ao catálogo

COSMOS 1275 DEB

AtivoPO
NORAD 42117·DEBRIS·🇷🇺 Russia

Lançado Jun 4, 1981 de Plesetsk Cosmodrome

Loading…

Próximas Passagens (próximas 24 horas)

TLE

AtualizadoSource: Space-Track

Época: Sep 13, 2026, 19:04 UTC

1 42117U 81053QD  26256.79492066  .00000772  00000-0  53378-3 0  9991
2 42117  82.9842  23.5269 0017889  62.4908 297.8077 13.97817730651399

Acompanhe COSMOS 1275 DEB em tempo real com AllMySat

Download on the App Store